www.pogodaiklimat.ru

Погода и климат >> Архив погоды >> Индия >> Indore


ПОГОДА в Indore

  • Прогноз погоды в Indore
  • Монитор погоды в Indore
  • Климат города

АРХИВ ПОГОДЫ в Indore

Время (UTC), дата Ветер
(напр.,м/с)
 
Видим.   Явления Облачность Т
(С)
Тd
(С)
f
(%)
Тe
(С)
Тes
(С)
Комфортность P
(гПа)
Po
(гПа)
Тmin
(С)
Tmax
(С)
R
(мм)
R24
(мм)
S
(см)
06 14.05 З 4 4000 м мгла 1/1 750 м
[Cu hum]
+38.4 +14.7 25 +39 +52 опасность
солнечного
удара
1004.2 944.5
09 14.05 З 7 4000 м мгла 5/5 600 м
[Sc diur, vesp]
+39.4 +13.6 22 +40 +42 очень
душно
1002.4 943.0
12 14.05 З 3 4000 м мгла 5/5 600 м
[Cu Sc]
+38.8 +13.1 22 +39 +40 очень
жарко
1000.1 940.6 +40.0
15 14.05 З 5 4000 м мгла ясно +35.4 +12.3 25 +35 +35 очень
жарко
1002.2 942.0
18 14.05 З 2 4000 м мгла ясно +31.6 +11.5 29 +32 +32 жарко 1004.1 943.0
21 14.05 З 3 4000 м мгла ясно +29.8 +12.1 34 +31 +31 жарко 1003.1 941.7
00 15.05 З 4 4000 м мгла ясно +27.4 +11.7 38 +29 +29 жарко 1004.0 942.2
03 15.05 З 4 4000 м мгла ясно +30.6 +17.2 45 +35 +39 очень
душно
1005.7 944.4 +25.7
06 15.05 СЗ 3 4000 м мгла ясно +37.2 +18.0 32 +41 +60 опасность
перегрева
1003.7 943.8
09 15.05 Ю 2 4000 м мгла 6/6 600 м
[Cb calv]
+39.4 +12.6 20 +39 +46 очень
жарко
1000.6 941.4
12 15.05 Ю 3 4000 м мгла {гроза, дождь} 8/8 600 м
[]
+31.0 +17.0 43 +35 +35 очень
душно
1001.3 940.2 +39.8 2
15 15.05 ЮЗ 3 4000 м мгла 3/3 750 м
[Sc]
+29.2 +17.7 50 +34 +34 очень
душно
1003.1 941.7 2
18 15.05 В 2 4000 м мгла 3/3 750 м
[Sc]
+29.0 +18.5 53 +34 +34 очень
душно
1004.7 943.2 2
21 15.05 З 3 4000 м мгла 3/3 750 м
[Sc]
+28.0 +17.3 52 +32 +32 душно 1003.6 941.8 2
00 16.05 З 3 4000 м мгла 3/3 750 м
[Sc]
+25.4 +18.8 67 +30 +30 душно 1003.4 941.2 2
03 16.05 З 5 4000 м мгла ясно +28.6 +18.0 53 +33 +37 очень
душно
1004.5 942.9 +23.8 2
06 16.05 З 8 4000 м мгла 1/1 750 м
[Cu hum]
+37.4 +17.1 30 +40 +44 очень
душно
1002.7 942.9
09 16.05 СЗ 6 4000 м мгла 3/3 600 м
[Sc diur, vesp]
+39.4 +15.0 24 +40 +45 очень
душно
1000.1 940.8
12 16.05 З 5 4000 м мгла 5/5 600 м
[Cu Sc]
+39.8 +11.8 19 +39 +40 очень
жарко
998.8 939.5 +41.4
15 16.05 З 3 4000 м мгла ясно +35.2 +13.4 27 +36 +36 очень
жарко
1000.6 940.6
18 16.05 З 3 4000 м ясно +30.0 +13.7 37 +32 +32 жарко 1003.4 942.0
21 16.05 З 2 4000 м ясно +27.8 +12.7 39 +29 +29 жарко 1002.7 941.0
00 17.05 З 2 4000 м ясно +25.6 +15.1 52 +28 +28 жарко 1004.0 941.8
03 17.05 З 6 4000 м мгла ясно +31.6 +17.4 43 +36 +39 очень
душно
1004.5 943.4 +24.0
06 17.05 СЗ 6 4000 м мгла ясно +39.2 +13.2 21 +39 +47 очень
жарко
1002.1 942.7
09 17.05 З 9 4000 м мгла 1/1 750 м
[Cu hum]
+42.0 +11.6 17 +41 +43 опасность
перегрева
999.4 940.5
12 17.05 З 5 4000 м мгла ясно +40.6 +13.2 20 +41 +42 опасность
перегрева
998.3 939.2 +42.5
15 17.05 З 3 4000 м мгла ясно +35.0 +7.4 18 +33 +33 жарко 1000.9 940.6
18 17.05 З 5 4000 м мгла ясно +30.8 +2.0 16 +28 +28 жарко 1002.3 941.1
21 17.05 З 3 4000 м мгла ясно +28.4 +2.5 19 +26 +26 жарко 1001.7 940.2
00 18.05 З 4 4000 м мгла ясно +27.4 +7.9 29 +27 +27 жарко 1002.6 940.9
03 18.05 З 7 4000 м мгла ясно +33.4 +11.0 25 +33 +35 жарко 1002.9 942.3 +27.0
06 18.05 З 8 4000 м мгла ясно +39.8 +6.6 13 +37 +41 очень
жарко
1001.5 942.1
09 18.05 СЗ 5 4000 м мгла 1/1 600 м
[]
+41.2 +7.1 13 +39 +48 очень
жарко
999.3 940.4
12 18.05 З 6 4000 м мгла ясно +39.6 +8.7 16 +38 +39 очень
жарко
998.7 939.4 +41.5
15 18.05 З 4 4000 м мгла ясно +34.4 +9.1 21 +33 +33 жарко 1001.2 940.9
18 18.05 З 3 4000 м мгла ясно +31.0 +9.6 27 +31 +31 жарко 1002.0 940.9
21 18.05 СЗ 3 4000 м мгла ясно +29.6 +9.9 29 +29 +29 жарко 1001.2 939.9
00 19.05 З 4 4000 м мгла ясно +28.0 +13.8 42 +30 +30 жарко 1002.4 940.7
03 19.05 З 5 4000 м мгла ясно +31.4 +15.2 38 +34 +38 душно 1003.0 942.3 +26.8
06 19.05 З 7 4000 м мгла ясно +38.4 +11.9 21 +38 +43 очень
жарко
1001.6 942.0
09 19.05 З 7 4000 м мгла ясно +41.2 +8.9 14 +39 +45 очень
жарко
998.7 939.8
12 19.05 СЗ 5 4000 м мгла ясно +40.2 +8.1 14 +38 +40 очень
жарко
997.4 938.5 +41.4
15 19.05 З 3 4000 м мгла ясно +35.4 +8.1 19 +34 +34 очень
жарко
1000.3 940.3
18 19.05 З 5 4000 м мгла ясно +32.2 +9.5 25 +32 +32 жарко 1001.9 941.1
21 19.05 З 4 4000 м мгла ясно +30.4 +10.1 28 +30 +30 жарко 1001.1 940.0
00 20.05 З 5 4000 м мгла ясно +27.6 +12.5 39 +29 +29 жарко 1002.9 940.9
03 20.05 З 1 4000 м мгла ясно +31.4 +15.6 39 +34 +43 душно 1003.6 942.6 +26.2
06 20.05 С 3 4000 м мгла ясно +37.6 +12.5 22 +37 +54 опасность
солнечного
удара
1002.0 942.2
09 20.05 З 3 4000 м ясно +41.0 +10.2 16 +40 +54 опасность
солнечного
удара
999.2 940.1
12 20.05 З 5 4000 м мгла 3/3 750 м
[Sc]
+40.4 +7.9 14 +38 +39 очень
жарко
997.7 938.8 +42.0
15 20.05 З 4 4000 м мгла ясно +36.2 +9.6 20 +35 +35 очень
жарко
1000.3 940.4
18 20.05 З 4 4000 м мгла ясно +33.0 +9.9 24 +32 +32 жарко 1002.0 941.2
21 20.05 З 3 4000 м мгла ясно +30.4 +9.7 28 +30 +30 жарко 1001.5 940.4
00 21.05 С 2 4000 м мгла ясно +28.4 +10.4 33 +29 +29 жарко 1003.3 941.7

 

Местоположение метеостанции Indore (Madhya Pradesh, Индия): широта 22.72 долгота 75.80 высота над уровнем моря 567 м.

В архиве по умолчанию представлена погода в Indore за последнюю неделю. Архивные данные за месяц целиком и за предыдущие месяцы, начиная с января 2011 года, Вы можете получить, выбрав интересующий диапазон дат из раскрывающегося списка и нажав кнопку "Ввод!".


*Определитесь, кто Вы:
робот инопланетянин человек

Внимание! Время в таблицах - всемирное. Для получения местного времени необходимо прибавить поправку, которая в Indore равна 5.5 ч.

Смотрите также архив погоды в соседних городах и на ближайших метеорологических станциях:

Погода в Ujjain (Madhya Pradesh, Индия) (51 км)
Погода в Dhar (Madhya Pradesh, Индия) (53 км)
Погода в Shajapur (Madhya Pradesh, Индия) (95 км)
Погода в Ratlam (Madhya Pradesh, Индия) (102 км)
Погода в Khargone (Madhya Pradesh, Индия) (102 км)
Погода в Khandwa (Madhya Pradesh, Индия) (115 км)
Погода в Bhopal (Madhya Pradesh, Индия) (170 км)
Погода в Rajgarh (Madhya Pradesh, Индия) (171 км)
Погода в Jalgaon (Maharashtra, Индия) (187 км)
Погода в Hoshangabad (Madhya Pradesh, Индия) (202 км)

Пояснения к столбцам:

Ветер - указаны скорость ветра в м/с - средняя за 10 мин, порывы в срок и между сроками (в фигурных скобках) и направление, откуда дует ветер: С - северный, СВ - северо-восточный, В - восточный, ЮВ - юго-восточный, Ю - южный, ЮЗ - юго-западный, З - западный, СЗ - северо-западный.
Видимость - горизонтальная дальность видимости в метрах или километрах. При видимости от 1 до 10 км при отсутствии осадков обычно наблюдается дымка, при ухудшении видимости до 1 км и менее - туман. В сухую погоду видимость может ухудшаться дымом, пылью или мглою.
Явления - указаны атмосферные явления, наблюдавшиеся в срок или в последний час перед сроком; фигурными скобками обозначены явления, наблюдавшиеся между сроками (за 1-3 часа до срока); квадратными скобками обозначены град или гололедные отложения с указанием их диаметра в мм.
Облачность - указаны через наклонную черту общая и нижняя облачность в баллах и высота нижней границы облаков в метрах; квадратными скобками обозначены формы облаков: Ci - перистые, Cs - перисто-слоистые, Cc - перисто-кучевые, Ac - высококучевые, As - высокослоистые, Sc - слоисто-кучевые, Ns - слоисто-дождевые, Cu - кучевые, Cb - кучево-дождевые. Подробнее классификацию облаков см. в Атласе облаков (PDF).
T - Температура воздуха - температура, измеренная на высоте 2 м над землей.
Td - Температура точки росы - температура, при понижении до которой содержащийся в воздухе водяной пар достигнет насыщения.
f - Относительная влажность воздуха - влажноcть воздуха, измеренная на высоте 2 м над землей.
Te - Эффективная температура - температура, которую ощущает одетый по сезону человек в тени. Характеристика душности погоды. При расчете учитывается влияние влажности воздуха и скорости ветра на теплоощущения человека.
Tes - Эффективная температура на солнце - температура, которую ощущает человек, с поправкой на солнечный нагрев. Характеристика знойности погоды. Зависит от высоты солнца над горизонтом, облачности и скорости ветра. Ночью, в пасмурную погоду, а также при ветре 12 м/с и более поправка равна нулю.
P - Атмосферное давление - приведенное к уровню моря атмосферное давление.
Po - Атмосферное давление - измеренное на уровне метеостанции атмосферное давление.
Tmin - Минимальная температура - минимум температуры воздуха на высоте 2 м над землей.
Tmax - Максимальная температура - максимум температуры воздуха на высоте 2 м над землей.
R - Количество осадков - Количество выпавших осадков за период времени, мм. При наведении курсора мыши на число - период времени, за который выпало указанное количество осадков.
R24 - Количество осадков - Количество выпавших осадков за 24 часа, мм.
S - Снежный покров - Высота снежного покрова, см. При наведении курсора мыши на число - состояние снежного покрова и степень покрытия местности в баллах.